Bradford, PA

7:50 PM EST on January 21, 2018 (GMT -0500)
Bradford Regional

Weather History for KBFD - May, 2013

Change the Weather History Date:

Friday, May 10, 2013

  Actual Average Record
Temperature  
Mean Temperature 57 °F 51 °F  
Max Temperature 72 °F 64 °F 86 °F (2015)
Min Temperature 42 °F 39 °F 20 °F (1966)
Degree Days  
Heating Degree Days 8 9  
Month to date heating degree days 102  
Since 1 July heating degree days 7353  
Cooling Degree Days 0 0  
Month to date cooling degree days 0  
Year to date cooling degree days 2  
Growing Degree Days 7 (Base 50)    
Moisture  
Dew Point 51 °F    
Average Humidity 78    
Maximum Humidity 88    
Minimum Humidity 51    
Precipitation  
Precipitation 0.42 in 0.13 in 1.03 in (1989)
Month to date precipitation 1.26  
Year to date precipitation 13.82  
Sea Level Pressure  
Sea Level Pressure 29.89 in    
Wind  
Wind Speed 5 mph (SSW)    
Max Wind Speed 16 mph    
Max Gust Speed 28 mph    
Visibility 8 miles    
Events Rain    
T = Trace of Precipitation, MM = Missing Value Source: NWS Daily Summary

Daily Weather History Graph

Daily Weather History Graph

Search for Another Location

Airport or City:

Trip Planner

Search our weather history database for the weather conditions in past years. The results will help you decide how hot, cold, wet, or windy it might be!

Date:

Astronomy

May. 10, 2013 Rise Set
Actual Time 5:59 AM EDT 8:22 PM EDT
Civil Twilight 5:28 AM EDT 8:54 PM EDT
Nautical Twilight 4:49 AM EDT 9:33 PM EDT
Astronomical Twilight 4:06 AM EDT 10:16 PM EDT
Moon 6:22 AM EDT (5/10) 9:11 PM EDT (5/10)
Length of Visible Light 15h 25m
Length of Day
14h 23m
New Moon, 0% of the Moon is Illuminated
May 10
New Moon
May 18
First Quarter
May 25
Full
May 31
Last Quarter
Jun 8
New

Hourly Weather History & Observations

Time (EDT) Temp. Windchill Dew Point Humidity Pressure Visibility Wind Dir Wind Speed Gust Speed Precip Events Conditions
12:53 AM 48.0 °F - 44.1 °F 86% 30.01 in 9.0 mi Calm Calm - N/A   Clear
1:53 AM 46.0 °F - 42.1 °F 86% 30.01 in 10.0 mi Calm Calm - N/A   Clear
2:53 AM 46.0 °F - 41.0 °F 83% 30.00 in 10.0 mi Calm Calm - N/A   Clear
3:53 AM 45.0 °F - 41.0 °F 86% 30.00 in 10.0 mi Calm Calm - N/A   Clear
4:53 AM 42.1 °F 40.2 °F 37.9 °F 85% 29.99 in 10.0 mi ESE 3.5 mph - N/A   Clear
5:53 AM 44.1 °F 42.5 °F 39.9 °F 85% 29.97 in 10.0 mi SE 3.5 mph - N/A   Mostly Cloudy
6:53 AM 48.0 °F - 44.1 °F 86% 29.97 in 10.0 mi ESE 4.6 mph - N/A   Overcast
8:53 AM 59.0 °F - 48.9 °F 69% 29.96 in 10.0 mi SSE 5.8 mph - N/A   Mostly Cloudy
9:53 AM 61.0 °F - 51.1 °F 70% 29.97 in 10.0 mi SSW 6.9 mph - 0.00 in Rain Light Rain
10:53 AM 61.0 °F - 53.1 °F 75% 29.96 in 10.0 mi South 6.9 mph - 0.00 in   Mostly Cloudy
11:53 AM 68.0 °F - 53.1 °F 59% 29.93 in 10.0 mi SSW 8.1 mph 18.4 mph N/A   Clear
1:24 PM 69.1 °F - 54.0 °F 58% 29.93 in 10.0 mi South 10.4 mph 16.1 mph N/A   Mostly Cloudy
1:32 PM 69.1 °F - 53.1 °F 57% 29.93 in 10.0 mi South 9.2 mph - N/A   Mostly Cloudy
1:53 PM 70.0 °F - 53.1 °F 55% 29.91 in 10.0 mi SSW 10.4 mph 20.7 mph N/A   Scattered Clouds
2:53 PM 71.1 °F - 53.1 °F 53% 29.89 in 10.0 mi SSW 15.0 mph 21.9 mph N/A   Mostly Cloudy
3:53 PM 71.1 °F - 53.1 °F 53% 29.86 in 10.0 mi SSW 13.8 mph 24.2 mph N/A   Mostly Cloudy
4:53 PM 72.0 °F - 53.1 °F 51% 29.84 in 10.0 mi SSW 13.8 mph 21.9 mph N/A   Mostly Cloudy
5:53 PM 71.1 °F - 53.1 °F 53% 29.84 in 10.0 mi South 6.9 mph - N/A   Overcast
6:53 PM 60.1 °F - 52.0 °F 75% 29.87 in 4.0 mi SW 16.1 mph 27.6 mph N/A Rain Rain
7:22 PM 57.9 °F - 53.1 °F 84% 29.90 in 1.8 mi WSW 8.1 mph - 0.11 in Rain Rain
7:34 PM 57.9 °F - 53.1 °F 84% 29.89 in 3.0 mi SW 9.2 mph 16.1 mph 0.14 in Rain Rain
7:47 PM 57.2 °F - 53.6 °F 88% 29.88 in 3.0 mi SW 10.4 mph - 0.17 in Rain Rain
7:48 PM 57.2 °F - 53.6 °F 88% 29.88 in 3.0 mi SW 8.1 mph - 0.17 in Rain Rain
7:53 PM 57.9 °F - 53.1 °F 84% 29.87 in 4.0 mi SW 8.1 mph - 0.18 in Rain Light Rain
8:04 PM 57.9 °F - 54.0 °F 87% 29.87 in 5.0 mi Variable 6.9 mph - 0.00 in Rain Light Rain
8:53 PM 57.9 °F - 54.0 °F 87% 29.82 in 7.0 mi SSE 5.8 mph - 0.03 in Rain Light Rain
9:02 PM 57.9 °F - 54.0 °F 87% 29.84 in 8.0 mi SSE 3.5 mph - 0.00 in   Overcast
9:05 PM 57.9 °F - 54.0 °F 87% 29.84 in 8.0 mi SSE 5.8 mph - 0.00 in   Overcast
9:45 PM 57.9 °F - 54.0 °F 87% 29.82 in 6.0 mi South 8.1 mph - 0.00 in Rain Light Rain
9:53 PM 59.0 °F - 54.0 °F 83% 29.81 in 8.0 mi South 6.9 mph - 0.01 in Rain Light Rain
10:23 PM 57.9 °F - 54.0 °F 87% 29.82 in 4.0 mi SSW 4.6 mph 16.1 mph 0.03 in Rain Rain
10:53 PM 57.9 °F - 54.0 °F 87% 29.79 in 3.0 mi Variable 3.5 mph - 0.09 in Rain Rain
11:10 PM 57.9 °F - 54.0 °F 87% 29.80 in 3.0 mi SW 5.8 mph - 0.06 in Rain Rain
11:20 PM 57.9 °F - 54.0 °F 87% 29.79 in 4.0 mi SW 4.6 mph - 0.08 in Rain Rain
11:41 PM 57.9 °F - 54.0 °F 87% 29.79 in 8.0 mi SW 9.2 mph - 0.11 in Rain Light Rain
11:53 PM 57.9 °F - 54.0 °F 87% 29.76 in 10.0 mi SW 8.1 mph - 0.11 in Rain Light Rain